When you browse on this site, cookies collect data to enhance your experience and personalize the content and advertising you see.
Visit our Privacy Policy to learn more. By continuing to use the site, you agree to this use of cookies and data.
  • In United Kingdom
  • List of Countries
  • For 7 days
  • Water Temperature
  • Weather Map
  • Weather Widgets
  • user-avatar
    Login

    Hourly Weather Bihać

    Today, 14 October, Monday

    Time Temperature Precipitation Wind Pressure Humidity
    00:00 +13°C° 0 mm 1 mps 714 mmHg 90%
    01:00 +13°C° 0 mm 1 mps 715 mmHg 90%
    02:00 +13°C° 0 mm 1 mps 714 mmHg 90%
    03:00 +12°C° 0 mm 1 mps 714 mmHg 90%
    04:00 +12°C° 0 mm 1 mps 713 mmHg 90%
    05:00 +12°C° 0 mm 1 mps 714 mmHg 89%
    06:00 +13°C° 0 mm 1 mps 714 mmHg 87%
    07:00 +12°C° 0 mm 0 mps 714 mmHg 87%
    08:00 +15°C° 0 mm 1 mps 714 mmHg 80%
    09:00 +18°C° 0 mm 1 mps 714 mmHg 74%
    10:00 +19°C° 0 mm 1 mps 714 mmHg 68%
    11:00 +20°C° 0 mm 1 mps 714 mmHg 66%
    12:00 +21°C° 0 mm 1 mps 714 mmHg 64%
    13:00 +21°C° 0 mm 1 mps 714 mmHg 62%
    14:00 +21°C° 0 mm 1 mps 714 mmHg 66%
    15:00 +20°C° 0 mm 1 mps 713 mmHg 70%
    16:00 +19°C° 0 mm 1 mps 713 mmHg 74%
    17:00 +18°C° 0 mm 1 mps 713 mmHg 79%
    18:00 +15°C° 0 mm 1 mps 713 mmHg 85%
    19:00 +14°C° 0 mm 1 mps 713 mmHg 90%
    20:00 +13°C° 0 mm 1 mps 713 mmHg 89%
    21:00 +13°C° 0 mm 1 mps 712 mmHg 89%
    22:00 +13°C° 0 mm 1 mps 712 mmHg 88%
    23:00 +13°C° 0 mm 1 mps 712 mmHg 88%

    Tomorrow, 15 October, Tuesday

    Time Temperature Precipitation Wind Pressure Humidity
    00:00 +12°C° 0 mm 1 mps 712 mmHg 88%
    01:00 +12°C° 0 mm 1 mps 712 mmHg 87%
    02:00 +12°C° 0 mm 1 mps 712 mmHg 88%
    03:00 +12°C° 0 mm 1 mps 711 mmHg 89%
    04:00 +12°C° 0 mm 1 mps 711 mmHg 90%
    05:00 +12°C° 0 mm 1 mps 711 mmHg 90%
    06:00 +12°C° 0 mm 2 mps 711 mmHg 90%
    07:00 +12°C° 0 mm 2 mps 711 mmHg 90%
    08:00 +14°C° 0 mm 2 mps 711 mmHg 81%
    09:00 +16°C° 0 mm 3 mps 711 mmHg 73%
    10:00 +18°C° 0 mm 3 mps 711 mmHg 64%
    11:00 +19°C° 0 mm 3 mps 711 mmHg 63%
    12:00 +19°C° 0 mm 3 mps 711 mmHg 62%
    13:00 +20°C° 0 mm 4 mps 711 mmHg 61%
    14:00 +19°C° 0 mm 3 mps 710 mmHg 65%
    15:00 +19°C° 0 mm 3 mps 710 mmHg 69%
    16:00 +18°C° 0 mm 3 mps 709 mmHg 72%
    17:00 +17°C° 0 mm 3 mps 709 mmHg 77%
    18:00 +14°C° 0 mm 3 mps 709 mmHg 83%
    19:00 +13°C° 0 mm 3 mps 709 mmHg 88%
    20:00 +13°C° 0 mm 3 mps 709 mmHg 85%
    21:00 +12°C° 0 mm 3 mps 709 mmHg 83%
    22:00 +12°C° 0 mm 3 mps 709 mmHg 80%
    23:00 +12°C° 0 mm 3 mps 709 mmHg 79%

    Day after tomorrow, 16 October, Wednesday

    Time Temperature Precipitation Wind Pressure Humidity
    00:00 +12°C° 0 mm 3 mps 709 mmHg 78%
    01:00 +13°C° 0 mm 3 mps 709 mmHg 78%
    02:00 +13°C° 0 mm 3 mps 709 mmHg 78%
    03:00 +14°C° 0 mm 2 mps 709 mmHg 79%
    04:00 +14°C° 0 mm 2 mps 709 mmHg 79%
    05:00 +14°C° 0 mm 2 mps 709 mmHg 79%
    06:00 +14°C° 0 mm 1 mps 709 mmHg 79%
    07:00 +15°C° 0 mm 1 mps 710 mmHg 79%
    08:00 +16°C° 0 mm 1 mps 710 mmHg 74%
    09:00 +19°C° 0 mm 1 mps 711 mmHg 70%
    10:00 +19°C° 0 mm 2 mps 711 mmHg 66%
    11:00 +20°C° 0.1 mm 2 mps 711 mmHg 66%
    12:00 +21°C° 0.1 mm 1 mps 711 mmHg 66%
    13:00 +21°C° 0.1 mm 1 mps 711 mmHg 66%
    14:00 +21°C° 0.1 mm 1 mps 711 mmHg 70%
    15:00 +20°C° 0.1 mm 1 mps 711 mmHg 73%
    16:00 +20°C° 0.1 mm 1 mps 711 mmHg 76%
    17:00 +18°C° 0.1 mm 1 mps 711 mmHg 81%
    18:00 +16°C° 0.1 mm 1 mps 711 mmHg 85%
    19:00 +14°C° 0.1 mm 0 mps 711 mmHg 89%
    20:00 +14°C° 0.1 mm 0 mps 711 mmHg 89%
    21:00 +14°C° 0.1 mm 0 mps 711 mmHg 89%
    22:00 +14°C° 0.1 mm 0 mps 712 mmHg 89%
    23:00 +13°C° 0 mm 0 mps 712 mmHg 89%

    17 October, Thursday

    Time Temperature Precipitation Wind Pressure Humidity
    00:00 +13°C° 0 mm 0 mps 711 mmHg 89%
    01:00 +14°C° 0 mm 1 mps 711 mmHg 90%
    02:00 +13°C° 0 mm 1 mps 711 mmHg 90%
    03:00 +13°C° 0 mm 1 mps 711 mmHg 90%
    04:00 +13°C° 0 mm 1 mps 711 mmHg 90%
    05:00 +13°C° 0 mm 1 mps 711 mmHg 90%
    06:00 +12°C° 0 mm 0 mps 711 mmHg 90%
    07:00 +12°C° 0 mm 0 mps 711 mmHg 89%
    08:00 +15°C° 0 mm 1 mps 712 mmHg 84%
    09:00 +18°C° 0 mm 1 mps 712 mmHg 78%
    10:00 +20°C° 0 mm 1 mps 713 mmHg 72%
    11:00 +20°C° 0.1 mm 1 mps 712 mmHg 70%
    12:00 +20°C° 0.1 mm 2 mps 712 mmHg 67%
    13:00 +20°C° 0.1 mm 2 mps 712 mmHg 64%
    14:00 +20°C° 0.1 mm 2 mps 712 mmHg 66%
    15:00 +19°C° 0.1 mm 2 mps 712 mmHg 69%
    16:00 +18°C° 0.1 mm 2 mps 712 mmHg 71%
    17:00 +18°C° 0 mm 1 mps 712 mmHg 74%
    18:00 +15°C° 0 mm 1 mps 712 mmHg 78%
    19:00 +14°C° 0 mm 1 mps 712 mmHg 81%
    20:00 +13°C° 0 mm 1 mps 712 mmHg 80%
    21:00 +13°C° 0 mm 1 mps 712 mmHg 78%
    22:00 +13°C° 0 mm 1 mps 712 mmHg 77%
    23:00 +12°C° 0 mm 1 mps 712 mmHg 76%

    18 October, Friday

    Time Temperature Precipitation Wind Pressure Humidity
    00:00 +11°C° 0 mm 0 mps 712 mmHg 75%
    01:00 +11°C° 0 mm 0 mps 712 mmHg 74%
    02:00 +10°C° 0 mm 0 mps 712 mmHg 73%
    03:00 +10°C° 0 mm 0 mps 712 mmHg 72%
    04:00 +10°C° 0 mm 0 mps 712 mmHg 71%
    05:00 +11°C° 0 mm 1 mps 712 mmHg 70%
    06:00 +11°C° 0 mm 1 mps 712 mmHg 69%
    07:00 +11°C° 0 mm 1 mps 712 mmHg 68%
    08:00 +14°C° 0 mm 1 mps 712 mmHg 61%
    09:00 +16°C° 0 mm 1 mps 712 mmHg 55%
    10:00 +19°C° 0 mm 1 mps 713 mmHg 48%
    11:00 +20°C° 0 mm 1 mps 712 mmHg 47%
    12:00 +20°C° 0 mm 1 mps 712 mmHg 45%
    13:00 +20°C° 0 mm 2 mps 712 mmHg 44%
    14:00 +19°C° 0 mm 2 mps 712 mmHg 49%
    15:00 +19°C° 0 mm 1 mps 711 mmHg 54%
    16:00 +18°C° 0 mm 1 mps 711 mmHg 60%
    17:00 +16°C° 0 mm 1 mps 711 mmHg 64%
    18:00 +14°C° 0 mm 1 mps 710 mmHg 68%
    19:00 +13°C° 0 mm 1 mps 710 mmHg 72%
    20:00 +12°C° 0 mm 1 mps 710 mmHg 72%
    21:00 +12°C° 0 mm 1 mps 710 mmHg 72%
    22:00 +12°C° 0 mm 1 mps 710 mmHg 72%
    23:00 +12°C° 0 mm 1 mps 710 mmHg 73%

    19 October, Saturday

    Time Temperature Precipitation Wind Pressure Humidity
    00:00 +11°C° 0 mm 1 mps 710 mmHg 73%
    01:00 +11°C° 0 mm 1 mps 710 mmHg 74%
    02:00 +11°C° 0 mm 1 mps 709 mmHg 75%
    03:00 +11°C° 0 mm 1 mps 709 mmHg 76%
    04:00 +11°C° 0 mm 1 mps 709 mmHg 77%
    05:00 +11°C° 0 mm 1 mps 709 mmHg 77%
    06:00 +12°C° 0 mm 1 mps 709 mmHg 77%
    07:00 +12°C° 0 mm 1 mps 709 mmHg 77%
    08:00 +13°C° 0 mm 2 mps 709 mmHg 72%
    09:00 +15°C° 0 mm 2 mps 710 mmHg 67%
    10:00 +17°C° 0 mm 2 mps 710 mmHg 62%
    11:00 +17°C° 0 mm 3 mps 710 mmHg 61%
    12:00 +18°C° 0 mm 3 mps 710 mmHg 61%
    13:00 +19°C° 0 mm 4 mps 710 mmHg 60%
    14:00 +18°C° 0.2 mm 4 mps 709 mmHg 66%
    15:00 +18°C° 0.2 mm 4 mps 709 mmHg 71%
    16:00 +17°C° 0.2 mm 3 mps 708 mmHg 77%
    17:00 +16°C° 0.2 mm 3 mps 708 mmHg 82%
    18:00 +14°C° 0.2 mm 3 mps 708 mmHg 87%
    19:00 +12°C° 0.2 mm 3 mps 708 mmHg 93%
    20:00 +12°C° 0.1 mm 3 mps 708 mmHg 92%
    21:00 +12°C° 0.1 mm 3 mps 708 mmHg 92%
    22:00 +12°C° 0.1 mm 3 mps 708 mmHg 91%
    23:00 +12°C° 0.1 mm 3 mps 708 mmHg 92%
    Show more